Weather Roundup
Issued by NWS

Home | Current Version | Previous Version | Text Only | Print | Product List | Glossary On
Versions: 1 2 3 4 5 6 7 8 9 10 11 12 13 14 15 16 17 18 19 20 21 22 23 24 25 26 27 28 29 30 31 32 33 34 35 36 37 38 39 40 41 42 43 44 45 46 47 48 49 50
571
NZUS93 KARX 280510
HRRWXR

CURRENT HOURLY OBSERVATIONS ACROSS
MUCH OF THE UPPER MISSISSIPPI VALLEY
NATIONAL WEATHER SERVICE LA CROSSE WI
1200 AM CDT WED JUN 28 2017


...SOUTHEAST MINNESOTA...


CITY           SKY/WX    TMP DP  RH WIND       PRES   REMARKS
ROCHESTER      PTCLDY    65  46  50 S16       29.88F
ROCHESTER/MAYO FAIR      66  45  46 SE13G20   29.87S
WINONA         CLOUDY    63  46  55 SE3       29.89S
AUSTIN         CLOUDY    64  46  52 S12       29.85F
ALBERT LEA     CLOUDY    66  48  52 S14G20    29.82F
DODGE CENTER   CLOUDY    66  45  45 S15       29.85F
PRESTON        CLOUDY    62  45  53 S12G20    29.90F
OWATONNA       CLOUDY    68  48  49 SE15G22   29.82F
FARIBAULT      CLOUDY    70  46  43 SE10      29.83F
$$

...ELSEWHERE IN MINNESOTA...


CITY           SKY/WX    TMP DP  RH WIND       PRES   REMARKS
MINNEAPOLIS    CLOUDY    70  45  40 S9        29.82F
INTNL FALLS    PTCLDY    56  46  69 SE5       29.76R
DULUTH         CLOUDY    59  46  62 S9        29.83S
RED WING       CLOUDY    66  43  42 SE7       29.86R
REDWOOD FALLS  CLOUDY    69  49  48 SE10      29.71F
MANKATO        MOCLDY    68  50  52 SE18      29.75F
WORTHINGTON    TSTM      66  63  88 S15G21    29.70F
FAIRMONT       PTCLDY    67  54  63 S14       29.76F
$$

...SOUTHWEST WISCONSIN...


CITY           SKY/WX    TMP DP  RH WIND       PRES   REMARKS
LA CROSSE      CLEAR     69  49  48 S10       29.90F
PRAIRIE DU CHI MOCLDY    61  47  59 E5        29.96S
BOSCOBEL       CLEAR     55  52  89 CALM      29.97S
LONE ROCK      CLEAR     56  50  80 CALM      29.99R
PLATTEVILLE    CLEAR     58  49  72 SE8       30.00S
FORT MC COY    CLEAR     56  49  76 SE8       29.94F
CAMP DOUGLAS   CLEAR     51  48  88 SE5       29.96S
MAUSTON-NEW LI CLEAR     53  51  91 CALM      29.97S
VIROQUA        FAIR      61  48  62 SE9       29.96F
WIS DELLS      PTCLDY    55  47  73 SW7       29.99S
$$

...ELSEWHERE IN WISCONSIN...


CITY           SKY/WX    TMP DP  RH WIND       PRES   REMARKS
MILWAUKEE      PTCLDY    62  49  62 S6        30.02R
MADISON        CLEAR     64  48  56 S8        30.00R
GREEN BAY      CLEAR     59  54  83 S6        29.98S
EAU CLAIRE     CLOUDY    62  48  60 S8        29.88S
BLACK RVR FLS  FAIR      51  51 100 SE5       29.92F
MEDFORD        CLEAR     55  48  76 S6        29.94F
WAUSAU           N/A    N/A N/A N/A MISG      29.96R
WIS RAPIDS     CLEAR     57  48  72 S6        29.98S
MARSHFIELD     CLEAR     55  48  77 S6        29.95S
RICE LAKE      CLOUDY    60  47  62 SE7       29.90R
$$

...NORTHEAST IOWA...


CITY           SKY/WX    TMP DP  RH WIND       PRES   REMARKS
WATERLOO       MOCLDY    66  50  56 SE13      29.91R
DUBUQUE        CLEAR     60  47  61 S10       29.99R
DECORAH        CLOUDY    63  48  59 S10       29.92F
MASON CITY     CLOUDY    64  49  57 SE13      29.86F
CHARLES CITY   CLOUDY    64  48  55 SE10G17   29.91S
OELWEIN        CLOUDY    63  48  59 SE12      29.94S
$$

...ELSEWHERE IN IOWA...


CITY           SKY/WX    TMP DP  RH WIND       PRES   REMARKS
DES MOINES     CLOUDY    71  57  61 SE10      29.87F
IOWA CITY      MOCLDY    62  52  69 SE5       29.97S
FORT DODGE     CLOUDY    72  55  56 S12G21    29.80F
MARSHALLTOWN   PTCLDY    67  52  58 SE14      29.89S
CEDAR RAPIDS   PTCLDY    65  51  60 S9        29.94F
$$

...NORTHERN ILLINOIS...


CITY           SKY/WX    TMP DP  RH WIND       PRES   REMARKS
CHICAGO-OHARE  PTCLDY    65  46  50 S8        30.04R
CHICAGO-MIDWAY CLEAR     67  46  47 S6        30.04S
MOLINE         CLEAR     61  49  64 SE5       29.99S
ROCKFORD       PTCLDY    61  46  57 S5        30.04R
PEORIA         CLEAR     63  50  62 S5        30.04R
$$

NOTE: "FAIR" INDICATES FEW OR NO CLOUDS BELOW 12,000 FEET WITH NO
SIGNIFICANT WEATHER AND/OR OBSTRUCTIONS TO VISIBILITY. WIND
SPEEDS ARE IN MILES-PER-HOUR.




USA.gov is the U.S. government's official web portal to all federal, state and local government web resources and services.